Location: Newark
(44.4156°N, 12.1972°E)
Time: 18:48:06
(UTC+00:00)

STARLINK-1082 - Pass Details

Date: 29 January 2020
Orbit: 348 x 351 km, 53.0° (Epoch: 18 February)

Event Time Altitude Azimuth Distance (km) Brightness Sun altitude
Rises 17:48:52 0° 306° (NW) 2,167 7.4 -16.7°
Reaches altitude 10° 17:50:56 10° 312° (NW) 1,321 6.1 -17.1°
Enters shadow 17:53:32 45° 10° (N) 492 3.2 -17.6°
